Wind_Speed
8 6 5 5 5 5 5 6 7 8 8 8 9 9 9 10 12 13 13 12 12 12 10 9 9 9 9 10 11 12 12 13 13 14 15 17 19 19 18 18 19 18
7 6 5 5 5 5 5 6 7 7 8 8 9 9 11 12 14 14 13 13 13 12 12 11 11 10 11 11 12 13 13 13 14 14 15 16 18 18 17 17 18 17
6 5 5 5 5 5 5 6 6 7 8 8 9 11 12 13 13 12 13 13 13 12 12 12 12 12 12 11 12 13 13 14 15 15 15 16 16 17 17 17 18 17
5 5 5 5 5 5 6 7 7 8 8 9 10 11 11 12 12 12 12 12 12 11 11 11 12 12 12 11 12 13 14 14 15 16 15 14 14 16 16 16 16 16
5 5 5 5 6 6 7 8 8 8 8 9 9 9 10 11 12 12 11 11 11 11 12 11 11 11 11 11 13 14 15 15 14 16 15 12 12 13 14 14 14 15
5 6 6 7 7 7 8 9 8 7 8 9 8 8 9 10 11 11 11 11 10 11 12 12 13 12 11 11 13 13 14 14 13 15 15 13 12 12 12 13 14 14
7 7 7 7 8 8 8 8 8 7 8 8 8 8 9 9 10 10 10 10 11 11 13 12 12 12 12 11 12 12 13 13 13 13 13 13 13 13 13 13 13 14
8 8 8 8 8 8 8 8 7 7 8 8 8 8 8 9 10 10 9 10 11 11 12 13 12 11 11 11 12 12 12 12 12 12 11 11 12 12 13 12 12 13
8 9 9 9 8 8 8 8 7 7 7 7 7 6 7 8 9 9 9 10 10 11 12 13 12 10 9 11 12 11 12 12 12 12 11 10 10 10 11 11 10 11
8 9 9 9 8 8 8 8 8 7 6 6 6 6 7 8 8 8 9 10 11 12 13 13 13 12 9 10 12 12 12 12 12 11 11 10 9 10 10 10 9 9
9 9 9 9 8 8 9 8 8 7 6 6 6 7 8 8 8 8 9 11 13 14 16 17 17 16 14 12 12 12 12 12 12 12 11 10 10 10 11 11 10 10
9 8 8 8 9 9 8 8 7 7 6 6 7 7 8 9 10 10 11 13 15 17 18 20 20 19 17 15 14 12 12 11 11 11 11 11 11 12 12 12 12 11
8 8 8 8 9 8 8 7 7 7 6 6 7 8 9 11 13 14 15 17 18 19 20 20 19 18 16 15 14 13 12 12 11 10 11 12 12 13 14 14 13 13
7 8 8 9 9 9 8 7 8 8 8 8 9 10 11 13 16 17 19 20 21 21 21 20 20 19 18 16 14 13 13 13 13 13 13 13 14 14 14 16 15 14
8 8 9 9 10 9 9 9 9 9 9 10 11 12 13 15 17 19 20 21 21 22 22 22 22 23 20 16 14 14 15 15 16 16 16 16 17 17 16 16 17 16
9 9 9 10 10 10 9 9 10 11 13 13 13 14 15 17 19 21 21 20 20 22 23 24 25 23 19 16 15 16 17 18 19 19 19 19 18 19 19 19 19 18
9 8 9 9 10 11 10 11 13 17 20 20 19 19 20 20 20 21 21 19 19 20 22 25 26 22 19 18 17 18 20 21 22 22 22 22 20 19 19 19 20 19
10 9 9 9 11 12 12 16 20 23 24 24 23 22 22 20 18 18 18 18 18 20 22 24 25 23 22 21 20 21 22 23 24 24 24 24 22 20 20 19 20 20
10 9 10 10 11 12 15 20 24 24 25 26 24 20 19 18 16 16 17 16 18 20 22 24 25 25 25 24 23 24 25 24 23 24 24 24 23 22 22 22 22 23
11 10 10 10 12 16 20 22 23 24 25 25 23 19 16 17 17 17 17 17 17 19 21 25 26 25 26 26 26 27 27 23 21 21 22 23 23 22 22 23 24 23
11 11 10 11 15 20 21 21 23 25 26 26 23 18 16 18 18 18 18 17 17 18 22 26 25 24 26 28 27 28 26 22 19 20 21 22 23 23 23 22 21 21
12 11 11 13 18 21 21 21 24 24 25 27 26 23 22 21 18 20 23 22 20 21 21 22 23 24 26 28 28 28 28 26 22 20 22 23 23 25 26 25 24 25
11 11 11 14 18 19 18 20 22 23 23 25 27 28 28 25 21 23 27 28 27 26 22 20 22 24 25 27 28 29 32 32 27 23 22 24 25 26 30 33 33 32
11 11 11 13 14 13 15 18 21 24 24 26 28 28 27 26 26 27 29 30 30 30 26 24 24 23 23 26 28 29 31 32 30 30 27 25 27 31 33 35 36 34
12 11 12 14 14 14 18 21 23 24 25 27 29 28 26 26 27 27 28 29 30 30 30 28 27 24 23 24 25 28 29 26 26 29 28 24 26 30 33 35 35 34
13 12 12 15 18 20 22 24 24 25 26 27 28 28 27 27 27 28 28 29 29 30 30 30 29 27 24 24 24 27 29 27 24 23 23 22 24 25 27 32 34 34
Wind_Direction
111 100 84 69 58 46 31 20 14 7 2 356 348 344 342 339 333 330 331 330 328 324 319 317 313 310 307 302 301 299 295 295 296 296 294 293 291 286 283 280 274 266
88 77 68 60 48 35 25 20 14 4 357 352 349 345 339 334 332 332 334 333 330 326 323 321 316 313 309 304 304 304 301 300 300 302 302 299 294 290 287 284 283 277
68 58 54 48 39 34 27 20 11 357 353 350 344 340 336 333 333 333 330 329 327 327 325 322 319 317 315 311 309 310 309 308 310 308 305 305 299 288 287 288 287 284
51 44 43 40 39 34 23 13 5 358 354 349 341 336 331 330 332 332 331 330 333 332 327 325 324 325 326 323 319 318 316 313 316 313 301 303 308 294 287 292 289 285
45 47 48 48 45 34 20 11 8 6 356 344 340 336 331 335 339 341 340 340 342 340 335 334 332 332 333 329 324 324 322 318 319 317 301 293 311 308 295 291 289 284
67 67 63 54 42 32 23 15 9 3 350 341 343 344 342 345 344 343 343 344 347 348 345 340 335 340 345 335 329 330 325 319 318 319 309 297 303 312 306 295 290 290
75 66 55 40 30 23 19 11 2 356 350 347 351 350 348 347 344 344 344 343 349 354 354 348 340 344 347 336 333 335 330 324 321 321 318 312 308 309 309 301 294 295
58 48 36 26 23 20 13 6 358 356 355 356 355 350 350 348 345 349 350 349 354 356 360 0 353 348 342 334 336 337 334 334 334 330 327 324 320 316 313 308 303 301
40 35 28 22 19 15 14 9 5 4 0 359 355 349 353 354 354 1 1 1 5 4 4 4 1 357 347 341 347 350 347 345 344 342 341 338 335 333 328 323 319 313
36 31 24 23 22 20 22 18 14 14 7 5 8 11 17 15 13 15 11 10 14 16 18 18 16 16 9 1 5 9 4 354 348 349 351 351 350 348 342 335 331 324
31 27 23 29 35 34 32 28 26 23 18 24 31 33 35 30 23 21 21 26 32 34 35 35 34 32 28 23 21 17 7 357 354 355 356 357 355 352 349 346 342 334
29 34 36 42 45 43 41 35 31 29 29 35 37 38 39 36 35 38 41 45 46 45 43 41 40 37 32 28 25 19 11 4 1 359 2 7 6 4 5 2 356 350
46 50 52 54 55 55 50 40 38 42 44 44 43 46 48 47 50 54 56 56 52 48 46 44 42 40 36 34 31 27 21 19 18 18 20 21 17 15 17 14 10 7
65 63 63 67 70 67 59 54 56 54 53 58 60 59 57 57 59 61 60 57 52 49 47 45 44 41 37 36 38 38 35 35 36 36 35 31 27 28 26 20 19 17
78 74 76 79 78 73 68 66 64 59 61 69 73 71 67 64 64 62 58 54 51 50 49 47 45 42 37 35 40 45 47 47 47 44 42 39 37 36 32 23 22 23
87 84 82 83 82 78 74 69 67 69 73 75 76 75 71 69 67 63 59 55 53 52 52 50 49 47 44 43 48 54 56 56 53 50 47 43 38 38 36 31 30 31
92 90 85 84 86 83 79 77 79 80 81 80 78 74 71 68 65 63 60 57 55 52 51 52 54 54 55 55 59 63 64 61 56 52 50 46 41 38 37 35 34 35
96 91 89 91 90 87 87 87 87 86 82 80 77 73 69 66 61 60 61 58 56 54 53 55 57 59 61 62 65 67 67 64 59 55 52 49 45 41 39 37 37 38
99 94 92 94 93 93 93 92 90 86 81 79 77 72 68 63 59 59 59 57 57 57 57 58 60 63 64 65 67 70 69 66 61 58 55 50 46 44 43 43 43 42
105 101 96 96 98 98 96 93 89 85 82 81 78 70 63 61 61 60 58 58 59 60 61 62 63 65 68 69 69 69 69 66 62 59 56 51 47 45 46 46 46 46
108 106 101 101 103 101 96 93 90 87 85 83 78 70 66 65 61 60 61 61 61 64 65 65 67 70 71 71 70 68 67 65 62 58 56 52 48 48 49 47 45 47
110 110 106 105 106 102 97 94 92 89 87 84 81 78 76 72 63 62 67 67 67 68 65 63 68 73 74 74 73 71 70 68 63 58 57 55 50 49 53 54 53 54
113 112 107 108 107 100 95 96 95 93 90 87 85 83 79 75 71 70 71 71 71 70 64 60 66 74 78 79 79 77 75 73 69 63 60 58 56 55 57 60 61 62
116 114 108 107 104 96 96 99 98 97 95 93 91 87 81 78 78 76 73 72 72 71 68 64 65 72 80 83 84 83 79 75 74 73 70 65 63 63 63 62 63 65
116 112 107 108 106 104 105 105 102 100 99 98 96 92 86 83 81 79 75 72 72 72 72 68 65 68 76 82 85 87 83 79 76 75 73 68 65 65 65 64 64 65
117 112 108 111 113 112 111 110 107 105 102 101 98 94 90 86 83 80 78 74 72 72 72 71 68 66 71 77 81 85 86 83 78 71 69 68 67 64 63 63 64 64
Height
816 817 818 818 818 818 818 817 816 816 816 815 815 815 814 814 813 812 811 810 809 808 807 805 804 803 803 802 801 801 800 799 798 797 795 794 793 792 791 790 790 790
816 817 818 818 818 818 817 816 816 816 816 815 815 814 814 813 813 811 810 809 807 806 805 804 803 802 801 800 800 799 797 796 795 794 793 791 790 789 788 788 788 787
816 817 818 818 818 818 817 816 816 816 815 815 814 814 814 813 812 810 809 807 806 805 804 802 801 800 800 798 797 796 795 794 793 792 791 789 788 787 786 786 785 785
816 817 817 818 817 817 817 816 816 815 815 815 814 814 813 812 811 809 808 806 805 804 802 801 800 799 798 797 796 794 793 792 791 790 788 787 786 785 784 784 783 782
816 817 817 817 817 817 816 816 815 815 815 815 814 814 813 812 810 808 807 805 804 803 801 800 799 798 797 796 794 793 791 790 789 788 786 785 784 783 782 782 781 780
817 817 817 817 816 816 816 815 815 815 815 815 814 813 812 811 810 808 806 804 802 801 800 799 798 797 796 795 793 792 790 789 788 786 785 784 783 782 781 780 779 778
817 817 817 816 816 816 816 815 815 815 814 814 813 813 812 810 809 807 805 803 802 801 799 798 797 796 795 794 792 791 790 788 787 785 784 783 781 780 779 778 778 777
817 817 817 817 816 816 816 815 815 815 814 814 813 812 811 810 808 806 805 803 802 800 799 797 796 795 794 793 791 790 789 787 786 785 783 782 780 779 778 777 776 775
817 817 817 817 817 816 816 816 815 815 814 814 813 812 811 809 808 806 804 803 801 800 798 797 795 794 793 792 790 789 788 787 786 784 783 781 780 779 777 776 775 774
817 818 818 817 817 817 816 816 816 815 814 814 813 812 810 809 807 806 804 802 801 799 798 796 794 793 792 791 790 789 788 787 786 784 783 781 780 779 778 776 775 774
818 818 818 818 818 817 817 817 816 816 815 814 813 812 810 808 807 805 804 802 800 799 798 796 794 793 792 791 790 789 788 787 786 785 783 782 780 779 778 776 775 774
819 819 819 819 818 818 818 818 817 816 816 814 813 811 810 808 806 805 803 802 801 799 798 797 795 794 793 792 791 790 789 787 786 785 783 782 781 780 778 777 775 774
820 821 820 819 819 818 819 819 818 817 816 814 813 811 810 809 806 805 804 802 801 800 799 798 796 795 794 793 791 790 789 788 786 785 784 782 781 780 779 777 776 775
821 821 821 820 820 820 820 820 819 817 816 814 813 812 811 809 807 806 804 803 802 801 800 799 798 796 795 793 792 791 790 788 787 785 784 783 782 780 779 778 777 776
822 822 821 821 821 821 821 820 819 818 816 815 814 812 811 809 808 806 805 804 804 803 802 800 798 797 796 795 794 792 791 789 788 787 785 784 782 781 780 778 777 776
822 823 822 822 822 822 822 821 820 818 817 816 814 813 811 810 808 807 806 806 805 805 803 802 800 800 799 797 795 794 792 791 789 788 787 785 784 782 781 780 778 778
823 824 824 824 823 823 822 821 820 819 818 817 815 814 812 811 809 808 808 808 807 806 805 804 804 803 801 799 797 796 794 792 791 790 789 787 786 785 783 782 781 779
824 824 825 825 824 824 823 822 821 820 819 817 816 815 813 812 811 811 810 810 809 808 808 807 807 805 803 802 800 798 796 795 794 793 791 790 789 788 786 785 784 783
825 825 825 825 825 824 823 822 821 820 819 818 817 816 815 814 814 813 812 812 811 811 811 810 809 808 806 804 802 800 798 797 796 795 794 793 792 791 790 788 787 786
825 826 826 826 825 824 823 823 822 821 820 819 818 818 817 816 816 815 815 814 814 814 814 813 811 811 809 807 805 803 801 800 799 799 797 796 795 794 793 791 790 789
826 826 826 826 825 825 824 823 823 822 821 820 820 820 820 819 818 818 817 817 817 817 816 815 814 814 812 810 808 807 805 803 803 802 801 800 799 798 796 795 795 793
826 826 826 826 826 825 824 824 823 823 822 822 821 821 821 821 821 821 820 820 819 819 818 818 818 817 815 813 812 810 808 807 806 806 805 804 804 802 800 799 798 797
826 826 826 826 826 825 825 825 824 824 824 824 823 823 822 823 823 823 822 822 822 821 821 821 820 819 818 816 814 813 811 810 810 810 809 809 808 807 805 804 802 801
826 826 826 826 826 827 827 826 825 825 825 825 825 825 825 825 825 825 825 825 824 823 823 824 823 822 821 819 817 816 814 814 813 813 813 813 812 811 809 808 807 806
826 826 826 826 827 827 827 827 827 827 827 827 826 826 827 827 827 827 827 827 827 827 826 826 826 825 824 822 821 818 817 817 817 816 816 816 816 815 813 813 812 810
826 826 827 827 827 827 828 828 828 828 828 828 828 828 829 829 829 829 829 830 830 830 829 829 829 829 827 826 824 822 820 820 820 819 820 819 819 818 817 816 816 815